Weather History for Du Bois, PA

Change the Weather History Date:

Thursday, February 21, 2013

  Actual Average Record
Temperature  
Mean Temperature 19 °F 28 °F  
Max Temperature 24 °F 36 °F 60 °F (1983)
Min Temperature 14 °F 19 °F -8 °F (1968)
Degree Days  
Heating Degree Days 46 37  
Month to date heating degree days 894 825  
Since 1 July heating degree days 4475 4769  
Cooling Degree Days 0 0  
Month to date cooling degree days 0 0  
Year to date cooling degree days 0 0  
Moisture  
Dew Point 10 °F    
Average Humidity 74    
Maximum Humidity 88    
Minimum Humidity 59    
Precipitation  
Precipitation T in 0.09 in 8.43 in (1999)
Month to date precipitation 0.52 1.70  
Sea Level Pressure  
Sea Level Pressure 30.16 in    
Wind  
Wind Speed 9 mph (WNW)    
Max Wind Speed 20 mph    
Max Gust Speed 25 mph    
Visibility 5 miles    
Events Snow    
T = Trace of Precipitation, MM = Missing Value Source: NWS Daily Summary

Daily Weather History Graph

Daily Weather History Graph

Search for Another Location

Airport:

Trip Planner

Search our weather history database for the weather conditions in past years. The results will help you decide how hot, cold, wet, or windy it might be!

Date:

Astronomy

Feb. 21, 2013 Rise Set
Actual Time 7:01 AM EST 5:57 PM EST
Civil Twilight 6:33 AM EST 6:25 PM EST
Nautical Twilight 6:01 AM EST 6:57 PM EST
Astronomical Twilight 5:29 AM EST 7:29 PM EST
Moon 2:09 PM EST (2/21) 4:06 AM EST (2/21)
Length of Visible Light 11h 51m
Length of Day
10h 55m
Waxing Gibbous, 83% of the Moon is Illuminated
Feb 21
Waxing Gibbous
Feb 25
Full
Mar 4
Last Quarter
Mar 11
New
Mar 19
First Quarter

Hourly Weather History & Observations

Time (EST) Temp. Windchill Dew Point Humidity Pressure Visibility Wind Dir Wind Speed Gust Speed Precip Events Conditions
12:48 AM 15.8 °F 2.7 °F 10.4 °F 79% 30.03 in 7.0 mi West 11.5 mph - 0.00 in   Overcast
12:56 AM 15.1 °F 0.5 °F 10.0 °F 80% 30.13 in 7.0 mi West 13.8 mph - 0.00 in   Overcast
1:20 AM 15.8 °F 0.9 °F 10.4 °F 79% 30.03 in 6.0 mi West 15.0 mph - N/A   Haze
1:56 AM 15.1 °F 1.1 °F 10.0 °F 80% 30.12 in 6.0 mi West 12.7 mph - N/A   Haze
2:36 AM 15.8 °F 2.1 °F 10.4 °F 79% 30.03 in 6.0 mi West 12.7 mph 19.6 mph N/A   Haze
2:56 AM 15.1 °F 1.1 °F 10.0 °F 80% 30.12 in 5.0 mi West 12.7 mph - 0.00 in Snow Light Snow
3:21 AM 15.8 °F 2.1 °F 10.4 °F 79% 30.03 in 4.0 mi West 12.7 mph - 0.00 in   Overcast
3:45 AM 15.8 °F 2.1 °F 10.4 °F 79% 30.03 in 4.0 mi West 12.7 mph - 0.00 in Snow Light Snow
3:56 AM 15.1 °F 1.8 °F 10.9 °F 84% 30.12 in 2.5 mi West 11.5 mph - 0.00 in Snow Light Snow
4:31 AM 15.8 °F 2.7 °F 10.4 °F 79% 30.03 in 1.8 mi West 11.5 mph - 0.00 in Snow Light Snow
4:56 AM 15.1 °F 3.3 °F 10.9 °F 84% 30.14 in 1.5 mi West 9.2 mph 19.6 mph 0.00 in Snow Light Snow
5:34 AM 15.8 °F 2.1 °F 10.4 °F 79% 30.05 in 2.5 mi West 12.7 mph 17.3 mph 0.00 in Snow Light Snow
5:43 AM 15.8 °F 2.7 °F 10.4 °F 79% 30.06 in 3.0 mi West 11.5 mph - 0.00 in Snow Light Snow
5:51 AM 15.8 °F 3.4 °F 10.4 °F 79% 30.06 in 1.8 mi West 10.4 mph - 0.00 in Snow Light Snow
5:56 AM 15.1 °F 4.2 °F 12.0 °F 88% 30.15 in 1.0 mi WNW 8.1 mph - 0.00 in Snow Light Snow
6:08 AM 15.8 °F 1.4 °F 10.4 °F 79% 30.07 in 3.0 mi WNW 13.8 mph - 0.00 in Snow Light Snow
6:54 AM 15.8 °F 2.1 °F 10.4 °F 79% 30.08 in 1.8 mi WNW 12.7 mph 19.6 mph 0.00 in Snow Light Snow
6:56 AM 15.1 °F 2.5 °F 10.0 °F 80% 30.18 in 1.8 mi WNW 10.4 mph 19.6 mph 0.00 in Snow Light Snow
7:04 AM 15.8 °F 6.1 °F 10.4 °F 79% 30.09 in 3.0 mi WNW 6.9 mph - 0.00 in Snow Light Snow
7:12 AM 15.8 °F 3.4 °F 10.4 °F 79% 30.09 in 1.8 mi WNW 10.4 mph - 0.00 in Snow Light Snow
7:43 AM 15.8 °F 4.2 °F 10.4 °F 79% 30.11 in 2.5 mi West 9.2 mph 18.4 mph 0.00 in Snow Light Snow
7:51 AM 15.8 °F 4.2 °F 10.4 °F 79% 30.11 in 3.0 mi WNW 9.2 mph - 0.00 in   Haze
7:56 AM 15.1 °F 2.5 °F 10.0 °F 80% 30.21 in 2.5 mi West 10.4 mph - 0.00 in   Haze
8:20 AM 15.8 °F 2.1 °F 8.6 °F 73% 30.12 in 3.0 mi WNW 12.7 mph 21.9 mph 0.00 in Snow Light Snow
8:27 AM 15.8 °F 1.4 °F 8.6 °F 73% 30.12 in 1.8 mi WNW 13.8 mph 21.9 mph 0.00 in Snow Light Snow
8:41 AM 15.8 °F 2.7 °F 8.6 °F 73% 30.12 in 2.5 mi WNW 11.5 mph - 0.00 in Snow Light Snow
8:56 AM 15.1 °F 1.8 °F 9.0 °F 77% 30.23 in 3.0 mi WNW 11.5 mph 20.7 mph 0.00 in   Haze
9:22 AM 15.8 °F 0.9 °F 8.6 °F 73% 30.15 in 2.0 mi WNW 15.0 mph 23.0 mph 0.00 in Snow Light Snow
9:53 AM 15.8 °F 2.1 °F 8.6 °F 73% 30.16 in 1.8 mi WNW 12.7 mph 21.9 mph 0.00 in Snow Light Snow
9:56 AM 16.0 °F 1.7 °F 9.0 °F 74% 30.25 in 1.8 mi NW 13.8 mph 20.7 mph 0.00 in Snow Light Snow
10:03 AM 15.8 °F 1.4 °F 8.6 °F 73% 30.16 in 2.5 mi NW 13.8 mph 23.0 mph 0.00 in Snow Light Snow
10:38 AM 15.8 °F 2.7 °F 8.6 °F 73% 30.15 in 5.0 mi NW 11.5 mph 24.2 mph 0.00 in   Haze
11:56 AM 18.0 °F 6.1 °F 10.0 °F 71% 30.25 in 10.0 mi WNW 10.4 mph 19.6 mph 0.00 in   Overcast
1:56 PM 21.0 °F 8.6 °F 12.0 °F 68% 30.24 in 10.0 mi WNW 12.7 mph - N/A   Mostly Cloudy
2:56 PM 21.9 °F 9.2 °F 12.0 °F 66% 30.26 in 10.0 mi West 13.8 mph - N/A   Scattered Clouds
3:56 PM 23.0 °F 11.1 °F 12.0 °F 63% 30.25 in 10.0 mi WNW 12.7 mph - N/A   Partly Cloudy
4:56 PM 23.0 °F 14.7 °F 10.9 °F 60% 30.23 in 10.0 mi NNW 6.9 mph - N/A   Clear
5:56 PM 21.9 °F 13.4 °F 10.9 °F 63% 30.30 in 10.0 mi WNW 6.9 mph - N/A   Clear
6:56 PM 19.9 °F 12.1 °F 10.9 °F 68% 30.35 in 10.0 mi West 5.8 mph - N/A   Clear
7:56 PM 18.0 °F 11.1 °F 10.0 °F 71% 30.34 in 10.0 mi NW 4.6 mph - N/A   Clear
8:56 PM 16.0 °F - 10.0 °F 77% 30.35 in 10.0 mi Calm Calm - N/A   Clear
9:56 PM 17.1 °F - 10.0 °F 74% 30.33 in 10.0 mi Calm Calm - N/A   Clear
10:56 PM 15.1 °F 7.7 °F 9.0 °F 77% 30.32 in 10.0 mi NNE 4.6 mph - N/A   Clear
11:56 PM 14.0 °F 6.5 °F 9.0 °F 80% 30.32 in 10.0 mi ENE 4.6 mph - N/A   Clear